GW1851 Weather Reports


Display with metric or nautical units.
time (UTC)temp
F
wind
direction
speed
MPH
gust
MPH
rain 1hr
in
rain 24hr
in
rain mn
in
humidity
%
barometer
mb
20260510193346 68 224 1.0 1.0 0.00 0.00 0.00 31 1020.2
20260510192842 67 328 3.0 3.0 0.00 0.00 0.00 31 1020.5
20260510192337 68 223 3.0 5.0 0.00 0.00 0.00 34 1020.3
20260510191833 67 254 1.0 1.0 0.00 0.00 0.00 33 1020.3
20260510191329 68 250 4.0 5.0 0.00 0.00 0.00 32 1020.3
20260510190827 68 215 1.0 2.0 0.00 0.00 0.00 30 1020.1
20260510190324 68 258 2.0 2.0 0.00 0.00 0.00 31 1019.8
20260510185815 68 279 1.0 1.0 0.00 0.00 0.00 31 1020.1
20260510185313 68 337 2.0 3.0 0.00 0.00 0.00 34 1020.1
20260510184810 68 316 3.0 3.0 0.00 0.00 0.00 32 1020.2
20260510184306 68 194 1.0 2.0 0.00 0.00 0.00 35 1020.1
20260510183801 67 235 2.0 2.0 0.00 0.00 0.00 33 1020.3
20260510183256 67 85 3.0 5.0 0.00 0.00 0.00 32 1020.2
20260510182752 68 272 3.0 3.0 0.00 0.00 0.00 29 1020.0
20260510182249 68 331 3.0 3.0 0.00 0.00 0.00 37 1020.3
20260510181746 68 209 1.0 2.0 0.00 0.00 0.00 35 1020.1
20260510181243 68 256 4.0 6.0 0.00 0.00 0.00 34 1020.1
20260510180739 67 275 2.0 2.0 0.00 0.00 0.00 31 1020.7
20260510180236 67 220 1.0 1.0 0.00 0.00 0.00 36 1020.7
20260510175733 66 236 2.0 2.0 0.00 0.00 0.00 40 1020.5
20260510175228 66 234 1.0 1.0 0.00 0.00 0.00 31 1020.6
20260510174726 66 0 4.0 5.0 0.00 0.00 0.00 32 1020.6
20260510174223 66 356 5.0 7.0 0.00 0.00 0.00 34 1020.6
20260510173719 66 318 3.0 5.0 0.00 0.00 0.00 32 1020.4
20260510173215 66 311 5.0 7.0 0.00 0.00 0.00 32 1020.6
20260510172710 66 219 1.0 1.0 0.00 0.00 0.00 34 1020.7
20260510172207 67 237 3.0 3.0 0.00 0.00 0.00 31 1020.7
20260510171703 66 236 1.0 1.0 0.00 0.00 0.00 30 1020.5
20260510171201 66 211 1.0 1.0 0.00 0.00 0.00 32 1020.6
20260510170658 65 261 2.0 2.0 0.00 0.00 0.00 36 1020.7
20260510170154 64 199 2.0 3.0 0.00 0.00 0.00 37 1020.9
20260510165650 64 160 0.0 1.0 0.00 0.00 0.00 34 1020.8
20260510165146 64 254 3.0 3.0 0.00 0.00 0.00 39 1020.9
20260510164644 66 8 3.0 7.0 0.00 0.00 0.00 37 1021.2
20260510164141 64 240 1.0 1.0 0.00 0.00 0.00 36 1020.9
20260510163636 65 224 3.0 3.0 0.00 0.00 0.00 39 1020.7
20260510163131 66 252 2.0 2.0 0.00 0.00 0.00 33 1020.7
20260510162626 64 86 1.0 2.0 0.00 0.00 0.00 39 1020.7
20260510162123 65 212 1.0 1.0 0.00 0.00 0.00 40 1020.7
20260510161619 64 246 3.0 3.0 0.00 0.00 0.00 36 1020.8
20260510161116 65 171 1.0 1.0 0.00 0.00 0.00 34 1020.6
20260510160613 65 234 2.0 2.0 0.00 0.00 0.00 36 1020.5
20260510160113 65 239 1.0 2.0 0.00 0.00 0.00 36 1020.6
20260510155609 65 70 3.0 3.0 0.00 0.00 0.00 33 1020.7
20260510155106 65 220 3.0 3.0 0.00 0.00 0.00 37 1020.8
20260510154601 64 234 3.0 3.0 0.00 0.00 0.00 34 1020.6
20260510154056 63 216 1.0 1.0 0.00 0.00 0.00 36 1020.7
20260510153551 64 244 3.0 3.0 0.00 0.00 0.00 35 1020.6
20260510153049 64 281 4.0 6.0 0.00 0.00 0.00 38 1020.5
20260510152545 63 267 2.0 2.0 0.00 0.00 0.00 35 1020.5
20260510152042 64 196 1.0 1.0 0.00 0.00 0.00 32 1020.7
20260510151538 64 41 2.0 2.0 0.00 0.00 0.00 32 1020.5
20260510151036 64 273 4.0 5.0 0.00 0.00 0.00 34 1020.5
20260510150531 64 263 3.0 3.0 0.00 0.00 0.00 33 1020.3
20260510150027 64 4 4.0 5.0 0.00 0.00 0.00 36 1020.0
20260510145524 63 92 2.0 2.0 0.00 0.00 0.00 35 1020.0
20260510145020 63 334 2.0 2.0 0.00 0.00 0.00 36 1020.0
20260510144517 62 338 4.0 6.0 0.00 0.00 0.00 34 1019.8
20260510144013 63 268 2.0 2.0 0.00 0.00 0.00 36 1019.7
20260510143509 63 88 2.0 3.0 0.00 0.00 0.00 38 1019.5
20260510143005 62 81 1.0 2.0 0.00 0.00 0.00 38 1019.7
20260510142502 62 6 3.0 3.0 0.00 0.00 0.00 40 1019.7
20260510141959 61 244 1.0 2.0 0.00 0.00 0.00 44 1019.6
20260510141455 61 141 1.0 2.0 0.00 0.00 0.00 47 1019.6
20260510140953 61 169 1.0 1.0 0.00 0.00 0.00 48 1019.6
20260510140449 60 190 1.0 1.0 0.00 0.00 0.00 45 1019.4
20260510135948 60 267 2.0 2.0 0.00 0.00 0.00 50 1019.5
20260510135444 59 238 2.0 2.0 0.00 0.00 0.00 48 1019.7
20260510134941 59 224 1.0 1.0 0.00 0.00 0.00 48 1019.7
20260510134438 59 186 1.0 2.0 0.00 0.00 0.00 48 1019.9
20260510133935 58 211 1.0 1.0 0.00 0.00 0.00 50 1019.6
20260510133431 57 224 1.0 1.0 0.00 0.00 0.00 52 1019.8
20260510132926 56 246 2.0 2.0 0.00 0.00 0.00 52 1019.7
20260510132424 56 301 2.0 3.0 0.00 0.00 0.00 53 1019.8
20260510131921 55 275 1.0 2.0 0.00 0.00 0.00 55 1019.8
20260510131418 55 248 2.0 2.0 0.00 0.00 0.00 54 1019.9
20260510130914 54 258 1.0 2.0 0.00 0.00 0.00 56 1019.6
20260510130406 53 230 1.0 1.0 0.00 0.00 0.00 55 1019.6
20260510125903 53 242 1.0 2.0 0.00 0.00 0.00 54 1019.6
20260510125359 53 223 1.0 1.0 0.00 0.00 0.00 56 1019.5
20260510124856 53 219 1.0 1.0 0.00 0.00 0.00 56 1019.5
20260510124353 52 315 2.0 3.0 0.00 0.00 0.00 56 1019.5
20260510123849 52 239 1.0 1.0 0.00 0.00 0.00 58 1019.4
20260510123344 52 209 1.0 1.0 0.00 0.00 0.00 61 1019.4
20260510122841 52 228 2.0 2.0 0.00 0.00 0.00 59 1019.3
20260510122336 51 223 1.0 2.0 0.00 0.00 0.00 59 1019.1
20260510121833 51 249 1.0 1.0 0.00 0.00 0.00 59 1019.0
20260510121331 51 236 1.0 1.0 0.00 0.00 0.00 61 1018.9
20260510120828 50 237 1.0 2.0 0.00 0.00 0.00 62 1018.7
20260510120325 50 311 2.0 2.0 0.00 0.00 0.00 62 1018.7
20260510115820 50 245 1.0 1.0 0.00 0.00 0.00 62 1018.4
20260510115318 49 287 2.0 2.0 0.00 0.00 0.00 63 1018.4
20260510114813 48 238 1.0 1.0 0.00 0.00 0.00 65 1018.3
20260510114311 48 244 1.0 1.0 0.00 0.00 0.00 66 1018.4
20260510113805 46 225 0.0 1.0 0.00 0.00 0.00 70 1018.1
20260510113303 46 229 0.0 1.0 0.00 0.00 0.00 72 1018.0
20260510112759 46 227 0.0 0.0 0.00 0.00 0.00 72 1017.8
20260510112256 46 227 0.0 0.0 0.00 0.00 0.00 71 1018.0
20260510111752 46 227 0.0 0.0 0.00 0.00 0.00 72 1018.0
20260510111249 46 227 0.0 0.0 0.00 0.00 0.00 72 1018.1
20260510110748 46 227 0.0 0.0 0.00 0.00 0.00 71 1017.8
20260510110247 47 227 0.0 0.0 0.00 0.00 0.00 71 1017.8
20260510105746 47 227 0.0 0.0 0.00 0.00 0.00 63 1017.6
20260510105241 48 227 0.0 0.0 0.00 0.00 0.00 63 1017.4
20260510104738 48 227 0.0 0.0 0.00 0.00 0.00 61 1017.2
20260510104236 49 227 0.0 0.0 0.00 0.00 0.00 61 1017.2
20260510103731 49 227 0.0 0.0 0.00 0.00 0.00 61 1017.1
20260510103229 49 230 1.0 1.0 0.00 0.00 0.00 60 1017.0
20260510102723 49 229 0.0 0.0 0.00 0.00 0.00 61 1016.8
20260510102219 49 230 1.0 1.0 0.00 0.00 0.00 61 1016.9
20260510101717 49 229 0.0 1.0 0.00 0.00 0.00 61 1017.0
20260510101215 50 222 1.0 1.0 0.00 0.00 0.00 61 1016.6
20260510100710 49 245 0.0 1.0 0.00 0.00 0.00 62 1016.6
20260510100209 50 219 0.0 0.0 0.00 0.00 0.00 63 1016.7
20260510095704 50 225 0.0 0.0 0.00 0.00 0.00 63 1016.5
20260510095159 50 225 0.0 0.0 0.00 0.00 0.00 61 1016.3
20260510094657 50 221 0.0 0.0 0.00 0.00 0.00 62 1016.1
20260510094154 51 225 0.0 0.0 0.00 0.00 0.00 61 1016.1
20260510093650 50 225 0.0 0.0 0.00 0.00 0.00 61 1015.9
20260510093148 50 244 0.0 0.0 0.00 0.00 0.00 61 1016.0
20260510092644 51 224 0.0 0.0 0.00 0.00 0.00 61 1015.8
20260510092139 51 224 0.0 1.0 0.00 0.00 0.00 59 1015.9
20260510091635 52 224 0.0 0.0 0.00 0.00 0.00 61 1015.7
20260510091131 52 223 0.0 0.0 0.00 0.00 0.00 58 1015.5
20260510090629 52 223 0.0 0.0 0.00 0.00 0.00 58 1015.5
20260510090125 52 229 0.0 1.0 0.00 0.00 0.00 60 1015.3
20260510085620 53 230 0.0 1.0 0.00 0.00 0.00 61 1015.3
20260510085115 53 229 0.0 0.0 0.00 0.00 0.00 56 1015.2
20260510084612 54 241 1.0 1.0 0.00 0.00 0.00 56 1015.3
20260510084109 54 225 1.0 1.0 0.00 0.00 0.00 55 1014.8
20260510083605 54 239 1.0 1.0 0.00 0.00 0.00 55 1015.3
20260510083102 54 228 1.0 1.0 0.00 0.00 0.00 54 1015.2
20260510082559 55 225 0.0 1.0 0.00 0.00 0.00 54 1015.0
20260510082054 55 238 1.0 1.0 0.00 0.00 0.00 54 1015.1
20260510081549 55 224 0.0 1.0 0.00 0.00 0.00 53 1015.0
20260510081045 55 224 0.0 0.0 0.00 0.00 0.00 53 1014.6
20260510080544 55 220 0.0 0.0 0.00 0.00 0.00 53 1015.0
20260510080042 56 242 1.0 1.0 0.00 0.00 0.00 52 1015.0
20260510075539 56 229 1.0 1.0 0.00 0.00 0.00 52 1015.2
20260510075035 56 238 1.0 1.0 0.00 0.00 0.00 52 1015.0
20260510074533 57 226 0.0 1.0 0.00 0.00 0.00 52 1015.1
20260510074028 57 238 1.0 1.0 0.00 0.00 0.00 51 1015.0
20260510073524 57 225 1.0 1.0 0.00 0.00 0.00 51 1014.8
20260510073021 57 239 1.0 1.0 0.00 0.00 0.00 51 1014.8
20260510072518 58 222 0.0 1.0 0.00 0.00 0.00 50 1014.7
20260510072014 58 227 1.0 2.0 0.00 0.00 0.00 51 1014.8
20260510071510 58 234 1.0 2.0 0.00 0.00 0.00 51 1014.7
20260510071009 59 226 0.0 0.0 0.00 0.00 0.00 53 1014.4
20260510070505 59 219 0.0 0.0 0.00 0.00 0.00 54 1014.6
20260510070001 59 219 0.0 0.0 0.00 0.00 0.00 52 1014.7
20260510065458 60 227 0.0 1.0 0.00 0.00 0.00 53 1014.8
20260510064954 60 227 0.0 0.0 0.00 0.00 0.00 52 1014.8
20260510064451 60 230 0.0 1.0 0.00 0.00 0.00 52 1014.8
20260510063948 60 230 1.0 1.0 0.00 0.00 0.00 50 1014.7
20260510063444 60 226 0.0 0.0 0.00 0.00 0.00 50 1014.7
20260510062942 60 231 1.0 1.0 0.00 0.00 0.00 52 1014.6
20260510062437 60 219 0.0 0.0 0.00 0.00 0.00 54 1014.7
20260510061932 60 219 0.0 0.0 0.00 0.00 0.00 55 1014.8
20260510061429 61 220 0.0 0.0 0.00 0.00 0.00 51 1014.4
20260510060925 61 225 0.0 0.0 0.00 0.00 0.00 52 1014.4
20260510060423 61 231 0.0 0.0 0.00 0.00 0.00 52 1014.1
20260510055919 62 225 0.0 0.0 0.00 0.00 0.00 51 1014.0
20260510055414 62 225 1.0 1.0 0.00 0.00 0.00 50 1014.0
20260510054907 62 231 0.0 0.0 0.00 0.00 0.00 51 1013.8
20260510054403 62 243 1.0 1.0 0.00 0.00 0.00 49 1013.5
20260510053857 62 249 0.0 1.0 0.00 0.00 0.00 50 1013.7
20260510053353 62 240 1.0 1.0 0.00 0.00 0.00 50 1013.5
20260510052850 62 227 1.0 1.0 0.00 0.00 0.00 51 1013.2
20260510052346 62 232 1.0 1.0 0.00 0.00 0.00 49 1013.4
20260510051842 63 231 0.0 1.0 0.00 0.00 0.00 49 1013.3
20260510051339 63 252 1.0 1.0 0.00 0.00 0.00 47 1013.3
20260510050836 63 232 1.0 2.0 0.00 0.00 0.00 48 1013.2
20260510050332 63 222 0.0 0.0 0.00 0.00 0.00 49 1013.2
20260510045829 63 235 1.0 1.0 0.00 0.01 0.01 49 1012.9
20260510045325 63 223 0.0 1.0 0.00 0.01 0.01 49 1012.9
20260510044823 64 235 2.0 2.0 0.00 0.01 0.01 47 1012.9
20260510044319 64 232 2.0 2.0 0.00 0.01 0.01 48 1012.8
20260510043815 64 218 0.0 1.0 0.00 0.01 0.01 49 1012.9
20260510043312 64 215 1.0 2.0 0.00 0.01 0.01 49 1012.6
20260510042810 64 307 2.0 2.0 0.00 0.01 0.01 50 1012.6
20260510042306 64 252 1.0 2.0 0.00 0.01 0.01 52 1012.6
20260510041802 64 252 1.0 1.0 0.00 0.01 0.01 53 1012.5
20260510041259 64 240 1.0 1.0 0.00 0.01 0.01 53 1012.2
20260510040756 64 248 2.0 2.0 0.00 0.01 0.01 53 1012.3
20260510040248 64 246 0.0 1.0 0.00 0.01 0.01 53 1012.2
20260510035743 64 229 1.0 1.0 0.00 0.01 0.01 53 1012.2
20260510035239 64 249 2.0 3.0 0.00 0.01 0.01 53 1012.1
20260510034734 64 255 2.0 2.0 0.00 0.01 0.01 53 1011.9
20260510034232 64 223 0.0 1.0 0.00 0.01 0.01 53 1012.1
20260510033729 64 226 1.0 1.0 0.00 0.01 0.01 53 1012.1
20260510033226 64 219 1.0 1.0 0.00 0.01 0.01 52 1011.8
20260510032722 64 245 1.0 1.0 0.00 0.01 0.01 51 1011.8
20260510032218 64 231 0.0 1.0 0.00 0.01 0.01 53 1011.7
20260510031713 64 217 0.0 0.0 0.00 0.01 0.01 54 1011.8
20260510031210 64 216 1.0 1.0 0.00 0.01 0.01 52 1011.9
20260510030709 64 221 0.0 1.0 0.00 0.01 0.01 52 1011.7
20260510030207 65 303 2.0 2.0 0.00 0.01 0.01 50 1011.3
20260510025704 65 224 2.0 3.0 0.00 0.01 0.01 50 1011.4
20260510025201 65 259 2.0 3.0 0.00 0.01 0.01 51 1011.3
20260510024658 65 257 2.0 2.0 0.00 0.01 0.01 50 1011.3
20260510024155 65 234 1.0 1.0 0.00 0.01 0.01 51 1011.0
20260510023650 65 226 0.0 1.0 0.00 0.01 0.01 53 1011.0
20260510023148 65 232 1.0 1.0 0.00 0.01 0.01 52 1010.9
20260510022644 65 221 0.0 1.0 0.00 0.01 0.01 52 1010.8
20260510022138 66 221 0.0 0.0 0.00 0.01 0.01 51 1010.7
20260510021628 66 222 0.0 1.0 0.00 0.01 0.01 49 1010.3
20260510021126 66 222 0.0 0.0 0.00 0.01 0.01 51 1010.3
20260510020620 66 228 0.0 0.0 0.00 0.01 0.01 52 1010.3
20260510020116 66 217 0.0 0.0 0.00 0.01 0.01 52 1010.2
20260510015612 67 226 1.0 2.0 0.00 0.01 0.01 50 1009.8
20260510015108 67 351 1.0 2.0 0.00 0.01 0.01 52 1009.9
20260510014604 67 250 2.0 3.0 0.00 0.01 0.01 49 1009.8
20260510014101 67 232 1.0 2.0 0.00 0.01 0.01 49 1009.9
20260510013555 67 249 2.0 2.0 0.00 0.01 0.01 49 1009.8
20260510013051 67 303 4.0 6.0 0.00 0.01 0.01 49 1009.3
20260510012545 67 59 3.0 3.0 0.00 0.01 0.01 50 1009.5
20260510012042 67 218 1.0 1.0 0.00 0.01 0.01 53 1009.2
20260510011541 68 222 1.0 1.0 0.00 0.01 0.01 51 1009.5
20260510011037 68 226 0.0 1.0 0.00 0.01 0.01 51 1009.4
20260510010534 68 229 0.0 1.0 0.00 0.01 0.01 51 1009.1
20260510010032 68 241 2.0 2.0 0.00 0.01 0.01 49 1009.1
20260510005527 68 327 3.0 3.0 0.00 0.01 0.01 48 1009.2
20260510005026 69 317 2.0 2.0 0.00 0.01 0.01 48 1009.2
20260510004522 69 283 3.0 3.0 0.00 0.01 0.01 47 1009.0
20260510004020 69 227 2.0 2.0 0.00 0.01 0.01 46 1009.0
20260510003516 70 265 2.0 2.0 0.00 0.01 0.01 46 1009.0
20260510003012 70 8 5.0 6.0 0.00 0.01 0.01 45 1008.8
20260510002508 70 313 5.0 6.0 0.00 0.01 0.01 44 1008.8
20260510002005 71 270 3.0 5.0 0.00 0.01 0.01 44 1008.5
20260510001502 71 47 3.0 5.0 0.00 0.01 0.01 43 1008.4
20260510001000 73 343 5.0 9.0 0.00 0.01 0.01 40 1008.4
20260510000455 73 12 2.0 2.0 0.00 0.01 0.01 38 1008.1
20260509235952 73 245 2.0 2.0 0.00 0.01 0.01 36 1008.1
20260509235449 73 284 2.0 2.0 0.00 0.01 0.01 35 1008.2
20260509234945 73 318 3.0 3.0 0.00 0.01 0.01 38 1007.8
20260509234442 74 239 2.0 2.0 0.00 0.01 0.01 38 1007.8
20260509233940 74 238 3.0 3.0 0.00 0.01 0.01 35 1008.0
20260509233437 74 242 2.0 2.0 0.00 0.01 0.01 35 1007.7
20260509232933 75 225 1.0 1.0 0.00 0.01 0.01 37 1007.7
20260509232431 75 296 2.0 2.0 0.00 0.01 0.01 34 1007.7
20260509231926 75 230 1.0 1.0 0.00 0.01 0.01 37 1007.6
20260509231423 76 219 0.0 0.0 0.00 0.01 0.01 36 1007.4
20260509230922 76 233 0.0 1.0 0.00 0.01 0.01 35 1007.4
20260509230418 76 238 3.0 3.0 0.00 0.01 0.01 33 1007.3
20260509225914 76 235 3.0 5.0 0.00 0.01 0.01 33 1007.3
20260509225411 76 219 0.0 1.0 0.00 0.01 0.01 34 1007.2
20260509224907 76 257 4.0 6.0 0.00 0.01 0.01 32 1007.3
20260509224402 76 230 2.0 2.0 0.00 0.01 0.01 32 1007.0
20260509223900 76 239 2.0 2.0 0.00 0.01 0.01 34 1007.2
20260509223356 76 246 3.0 3.0 0.00 0.01 0.01 33 1007.0
20260509222854 77 228 1.0 2.0 0.00 0.01 0.01 36 1007.0
20260509222349 77 254 4.0 6.0 0.00 0.01 0.01 32 1007.0
20260509221844 77 219 1.0 2.0 0.00 0.01 0.01 33 1007.3
20260509221342 77 252 5.0 7.0 0.00 0.01 0.01 34 1006.9
20260509220837 77 351 2.0 5.0 0.00 0.01 0.01 33 1006.7
20260509220334 78 253 5.0 6.0 0.00 0.01 0.01 32 1007.2
20260509215829 78 245 3.0 5.0 0.00 0.01 0.01 35 1006.9
20260509215326 78 240 3.0 5.0 0.00 0.01 0.01 33 1007.0
20260509214823 78 258 4.0 5.0 0.00 0.01 0.01 35 1007.1
20260509214320 77 230 3.0 5.0 0.00 0.01 0.01 35 1006.8
20260509213817 77 220 2.0 2.0 0.00 0.01 0.01 34 1007.0
20260509213312 77 339 1.0 2.0 0.00 0.01 0.01 35 1007.2
20260509212810 77 247 4.0 6.0 0.00 0.01 0.01 34 1007.1
20260509212308 78 140 3.0 5.0 0.00 0.01 0.01 35 1006.9
20260509211803 78 233 3.0 5.0 0.00 0.01 0.01 36 1007.1
20260509211259 77 218 2.0 3.0 0.00 0.01 0.01 36 1007.2
20260509210756 77 243 6.0 8.0 0.00 0.01 0.01 33 1007.3
20260509210254 77 229 2.0 2.0 0.00 0.01 0.01 35 1007.3
20260509205753 78 225 1.0 2.0 0.00 0.01 0.01 36 1007.3
20260509205248 77 251 2.0 5.0 0.00 0.01 0.01 33 1007.2
20260509204744 78 271 2.0 5.0 0.00 0.01 0.01 35 1007.0
20260509204241 78 235 1.0 1.0 0.00 0.01 0.01 39 1007.5
20260509203737 78 221 3.0 5.0 0.00 0.01 0.01 36 1007.3
20260509203235 78 219 4.0 6.0 0.00 0.01 0.01 36 1007.3
20260509202730 77 250 3.0 3.0 0.00 0.01 0.01 37 1007.5
20260509202226 77 249 2.0 5.0 0.00 0.01 0.01 38 1007.5
20260509201721 78 267 8.0 13.0 0.00 0.01 0.01 34 1007.6
20260509201218 78 265 4.0 6.0 0.00 0.01 0.01 36 1007.4
20260509200715 77 340 5.0 7.0 0.00 0.01 0.01 34 1007.6
20260509200209 78 239 3.0 3.0 0.00 0.01 0.01 37 1007.5
20260509195705 77 241 5.0 7.0 0.00 0.01 0.01 32 1007.5
20260509195200 77 235 3.0 5.0 0.00 0.01 0.01 35 1007.6
20260509194655 77 249 6.0 7.0 0.00 0.01 0.01 35 1007.6
20260509194152 77 205 2.0 3.0 0.00 0.01 0.01 36 1007.5